When you browse on this site, cookies collect data to enhance your experience and personalize the content and advertising you see.
Visit our Privacy Policy to learn more. By continuing to use the site, you agree to this use of cookies and data.
  • In United Kingdom
  • List of Countries
  • For 7 days
  • Water Temperature
  • Satellite Maps
  • Weather Map
  • Weather Widgets
  • user-avatar
    Login

    Hourly Weather Sherpur

    Today, 26 May, Sunday

    Time Temperature Precipitation Wind Pressure Humidity
    00:00 +16°C° 0 mm 2 mps 610 mmHg 36%
    01:00 +16°C° 0 mm 2 mps 610 mmHg 37%
    02:00 +15°C° 0 mm 2 mps 610 mmHg 38%
    03:00 +14°C° 0 mm 2 mps 609 mmHg 40%
    04:00 +14°C° 0 mm 2 mps 609 mmHg 41%
    05:00 +13°C° 0 mm 4 mps 609 mmHg 37%
    06:00 +14°C° 0 mm 4 mps 610 mmHg 33%
    07:00 +16°C° 0 mm 3 mps 611 mmHg 30%
    08:00 +17°C° 0 mm 3 mps 611 mmHg 27%
    09:00 +19°C° 0 mm 3 mps 611 mmHg 24%
    10:00 +20°C° 0 mm 3 mps 612 mmHg 21%
    11:00 +22°C° 0 mm 3 mps 612 mmHg 20%
    12:00 +22°C° 0 mm 3 mps 612 mmHg 19%
    13:00 +23°C° 0 mm 4 mps 612 mmHg 17%
    14:00 +25°C° 0 mm 4 mps 612 mmHg 16%
    15:00 +25°C° 0 mm 4 mps 612 mmHg 16%
    16:00 +25°C° 0 mm 5 mps 612 mmHg 15%
    17:00 +25°C° 0 mm 5 mps 612 mmHg 15%
    18:00 +22°C° 0 mm 4 mps 612 mmHg 18%
    19:00 +21°C° 0 mm 4 mps 611 mmHg 20%
    20:00 +19°C° 0 mm 3 mps 611 mmHg 23%
    21:00 +19°C° 0 mm 2 mps 611 mmHg 25%
    22:00 +18°C° 0 mm 2 mps 611 mmHg 28%
    23:00 +18°C° 0 mm 1 mps 611 mmHg 30%

    Tomorrow, 27 May, Monday

    Time Temperature Precipitation Wind Pressure Humidity
    00:00 +16°C° 0 mm 1 mps 611 mmHg 31%
    01:00 +16°C° 0 mm 1 mps 610 mmHg 32%
    02:00 +15°C° 0 mm 1 mps 610 mmHg 33%
    03:00 +14°C° 0 mm 1 mps 610 mmHg 34%
    04:00 +14°C° 0 mm 1 mps 610 mmHg 34%
    05:00 +14°C° 0 mm 2 mps 609 mmHg 34%
    06:00 +15°C° 0 mm 1 mps 610 mmHg 30%
    07:00 +18°C° 0 mm 1 mps 611 mmHg 26%
    08:00 +19°C° 0 mm 1 mps 611 mmHg 22%
    09:00 +21°C° 0 mm 1 mps 611 mmHg 19%
    10:00 +22°C° 0 mm 1 mps 612 mmHg 16%
    11:00 +24°C° 0 mm 1 mps 612 mmHg 13%
    12:00 +25°C° 0 mm 1 mps 612 mmHg 13%
    13:00 +26°C° 0 mm 2 mps 612 mmHg 12%
    14:00 +27°C° 0 mm 2 mps 612 mmHg 11%
    15:00 +27°C° 0 mm 2 mps 612 mmHg 11%
    16:00 +27°C° 0 mm 2 mps 612 mmHg 11%
    17:00 +27°C° 0 mm 3 mps 612 mmHg 11%
    18:00 +26°C° 0 mm 2 mps 612 mmHg 13%
    19:00 +24°C° 0 mm 2 mps 612 mmHg 15%
    20:00 +23°C° 0 mm 2 mps 611 mmHg 16%
    21:00 +21°C° 0 mm 2 mps 611 mmHg 18%
    22:00 +20°C° 0 mm 2 mps 611 mmHg 19%
    23:00 +20°C° 0 mm 1 mps 611 mmHg 20%

    Day after tomorrow, 28 May, Tuesday

    Time Temperature Precipitation Wind Pressure Humidity
    00:00 +19°C° 0 mm 1 mps 611 mmHg 22%
    01:00 +18°C° 0 mm 1 mps 610 mmHg 23%
    02:00 +18°C° 0 mm 1 mps 610 mmHg 25%
    03:00 +16°C° 0 mm 1 mps 610 mmHg 25%
    04:00 +16°C° 0 mm 1 mps 609 mmHg 25%
    05:00 +15°C° 0 mm 1 mps 609 mmHg 26%
    06:00 +18°C° 0 mm 1 mps 610 mmHg 23%
    07:00 +20°C° 0 mm 1 mps 611 mmHg 20%
    08:00 +22°C° 0 mm 1 mps 612 mmHg 17%
    09:00 +23°C° 0 mm 1 mps 612 mmHg 15%
    10:00 +24°C° 0 mm 1 mps 612 mmHg 13%
    11:00 +26°C° 0 mm 1 mps 613 mmHg 11%
    12:00 +27°C° 0 mm 1 mps 613 mmHg 10%
    13:00 +28°C° 0 mm 2 mps 613 mmHg 10%
    14:00 +29°C° 0 mm 2 mps 613 mmHg 9%
    15:00 +29°C° 0 mm 3 mps 613 mmHg 9%
    16:00 +29°C° 0 mm 3 mps 613 mmHg 9%
    17:00 +29°C° 0 mm 4 mps 612 mmHg 10%
    18:00 +27°C° 0 mm 4 mps 612 mmHg 12%
    19:00 +25°C° 0 mm 3 mps 612 mmHg 14%
    20:00 +24°C° 0 mm 3 mps 612 mmHg 17%
    21:00 +23°C° 0 mm 2 mps 612 mmHg 19%
    22:00 +21°C° 0 mm 2 mps 612 mmHg 20%
    23:00 +20°C° 0 mm 2 mps 611 mmHg 22%

    29 May, Wednesday

    Time Temperature Precipitation Wind Pressure Humidity
    00:00 +20°C° 0 mm 1 mps 611 mmHg 23%
    01:00 +19°C° 0 mm 1 mps 611 mmHg 24%
    02:00 +19°C° 0 mm 1 mps 610 mmHg 25%
    03:00 +18°C° 0 mm 1 mps 610 mmHg 25%
    04:00 +18°C° 0 mm 1 mps 610 mmHg 25%
    05:00 +16°C° 0 mm 1 mps 609 mmHg 26%
    06:00 +19°C° 0 mm 1 mps 610 mmHg 23%
    07:00 +21°C° 0 mm 1 mps 611 mmHg 19%
    08:00 +23°C° 0 mm 1 mps 612 mmHg 16%
    09:00 +24°C° 0 mm 1 mps 612 mmHg 15%
    10:00 +25°C° 0 mm 1 mps 612 mmHg 13%
    11:00 +27°C° 0 mm 1 mps 612 mmHg 12%
    12:00 +27°C° 0 mm 1 mps 612 mmHg 11%
    13:00 +28°C° 0 mm 2 mps 612 mmHg 11%
    14:00 +29°C° 0 mm 2 mps 612 mmHg 10%
    15:00 +29°C° 0 mm 3 mps 612 mmHg 10%
    16:00 +29°C° 0 mm 3 mps 612 mmHg 11%
    17:00 +29°C° 0 mm 4 mps 611 mmHg 11%
    18:00 +28°C° 0 mm 3 mps 611 mmHg 13%
    19:00 +26°C° 0 mm 3 mps 611 mmHg 16%
    20:00 +25°C° 0 mm 2 mps 611 mmHg 18%
    21:00 +24°C° 0 mm 2 mps 611 mmHg 20%
    22:00 +23°C° 0 mm 2 mps 611 mmHg 22%
    23:00 +21°C° 0 mm 2 mps 611 mmHg 24%

    30 May, Thursday

    Time Temperature Precipitation Wind Pressure Humidity
    00:00 +21°C° 0 mm 1 mps 610 mmHg 25%
    01:00 +21°C° 0 mm 1 mps 610 mmHg 26%
    02:00 +20°C° 0 mm 1 mps 609 mmHg 27%
    03:00 +19°C° 0 mm 1 mps 609 mmHg 28%
    04:00 +19°C° 0 mm 1 mps 609 mmHg 28%
    05:00 +18°C° 0 mm 1 mps 608 mmHg 28%
    06:00 +20°C° 0 mm 1 mps 609 mmHg 25%
    07:00 +22°C° 0 mm 1 mps 610 mmHg 21%
    08:00 +24°C° 0 mm 1 mps 611 mmHg 17%
    09:00 +25°C° 0 mm 1 mps 611 mmHg 17%
    10:00 +26°C° 0 mm 1 mps 611 mmHg 16%
    11:00 +27°C° 0 mm 2 mps 611 mmHg 15%
    12:00 +28°C° 0 mm 2 mps 611 mmHg 15%
    13:00 +29°C° 0 mm 3 mps 611 mmHg 14%
    14:00 +30°C° 0 mm 3 mps 611 mmHg 14%
    15:00 +30°C° 0.1 mm 3 mps 611 mmHg 15%
    16:00 +29°C° 0.1 mm 4 mps 611 mmHg 16%
    17:00 +29°C° 0.1 mm 5 mps 611 mmHg 17%
    18:00 +28°C° 0.1 mm 4 mps 611 mmHg 20%
    19:00 +27°C° 0.1 mm 4 mps 611 mmHg 23%
    20:00 +26°C° 0.1 mm 3 mps 611 mmHg 26%
    21:00 +25°C° 0 mm 3 mps 611 mmHg 28%
    22:00 +24°C° 0 mm 3 mps 611 mmHg 31%
    23:00 +22°C° 0 mm 3 mps 611 mmHg 33%

    31 May, Friday

    Time Temperature Precipitation Wind Pressure Humidity
    00:00 +21°C° 0.1 mm 3 mps 611 mmHg 35%
    01:00 +21°C° 0.1 mm 2 mps 610 mmHg 37%
    02:00 +20°C° 0.1 mm 2 mps 610 mmHg 38%
    03:00 +20°C° 0.1 mm 2 mps 610 mmHg 41%
    04:00 +20°C° 0.1 mm 1 mps 609 mmHg 43%
    05:00 +19°C° 0.1 mm 1 mps 609 mmHg 45%
    06:00 +21°C° 0 mm 1 mps 610 mmHg 41%
    07:00 +22°C° 0 mm 1 mps 610 mmHg 36%
    08:00 +23°C° 0 mm 1 mps 611 mmHg 32%
    09:00 +24°C° 0 mm 1 mps 611 mmHg 29%
    10:00 +26°C° 0 mm 2 mps 611 mmHg 25%
    11:00 +27°C° 0 mm 2 mps 612 mmHg 22%
    12:00 +28°C° 0.1 mm 2 mps 611 mmHg 21%
    13:00 +28°C° 0.1 mm 3 mps 611 mmHg 20%
    14:00 +29°C° 0.1 mm 3 mps 611 mmHg 18%
    15:00 +29°C° 0.1 mm 4 mps 611 mmHg 19%
    16:00 +29°C° 0.1 mm 4 mps 611 mmHg 20%
    17:00 +28°C° 0.1 mm 5 mps 610 mmHg 21%
    18:00 +27°C° 0.2 mm 4 mps 611 mmHg 24%
    19:00 +26°C° 0.2 mm 3 mps 611 mmHg 28%
    20:00 +25°C° 0.2 mm 2 mps 611 mmHg 31%
    21:00 +24°C° 0.1 mm 2 mps 611 mmHg 33%
    22:00 +23°C° 0.1 mm 2 mps 611 mmHg 35%
    23:00 +21°C° 0.1 mm 2 mps 611 mmHg 37%
    Show more